Ohio State University, OH

7:57 AM EDT on May 24, 2017 (GMT -0400)
Ohio State University

Weather History for KOSU - March, 2013

Change the Weather History Date:

Wednesday, March 6, 2013

  Actual Average Record
Temperature  
Mean Temperature 33 °F -  
Max Temperature 36 °F 41 °F 66 °F (2009)
Min Temperature 30 °F 25 °F 1 °F (2015)
Degree Days  
Heating Degree Days 32    
Moisture  
Dew Point 30 °F    
Average Humidity 89    
Maximum Humidity 100    
Minimum Humidity 78    
Precipitation  
Precipitation 0.06 in - - ()
Sea Level Pressure  
Sea Level Pressure 29.89 in    
Wind  
Wind Speed 14 mph (NNW)    
Max Wind Speed 18 mph    
Max Gust Speed 24 mph    
Visibility 6 miles    
Events Fog , Snow    
Averages and records for this station are not official NWS values.
T = Trace of Precipitation, MM = Missing Value Source: NWS Daily Summary

Daily Weather History Graph

Daily Weather History Graph

Search for Another Location

Airport or City:

Trip Planner

Search our weather history database for the weather conditions in past years. The results will help you decide how hot, cold, wet, or windy it might be!

Date:

Astronomy

Mar. 06, 2013 Rise Set
Actual Time 6:57 AM EST 6:29 PM EST
Civil Twilight 6:30 AM EST 6:56 PM EST
Nautical Twilight 5:59 AM EST 7:28 PM EST
Astronomical Twilight 5:27 AM EST 7:59 PM EST
Moon 3:05 AM EST (3/6) 1:10 PM EST (3/6)
Length of Visible Light 12h 26m
Length of Day
11h 32m
Waning Crescent, 30% of the Moon is Illuminated
Mar 6
Waning Crescent
Mar 11
New
Mar 19
First Quarter
Mar 27
Full
Apr 3
Last Quarter

Hourly Weather History & Observations

Time (EST) Temp. Windchill Dew Point Humidity Pressure Visibility Wind Dir Wind Speed Gust Speed Precip Events Conditions
12:53 AM 32.0 °F 21.6 °F 32.0 °F 100% 29.57 in 0.5 mi North 15.0 mph - 0.04 in Fog , Snow Snow
1:20 AM 32.0 °F 21.6 °F 32.0 °F 100% 29.55 in 1.0 mi North 15.0 mph - 0.01 in Snow Light Snow
1:53 AM 32.0 °F 22.1 °F 32.0 °F 100% 29.59 in 1.2 mi North 13.8 mph - 0.01 in Snow Light Snow
2:53 AM 32.0 °F 21.6 °F 30.9 °F 96% 29.61 in 1.0 mi North 15.0 mph - 0.00 in Snow Light Snow
3:53 AM 30.9 °F 20.2 °F 30.9 °F 100% 29.63 in 1.2 mi North 15.0 mph - 0.00 in Snow Light Snow
4:20 AM 30.2 °F 18.5 °F 30.2 °F 100% 29.63 in 2.0 mi North 17.3 mph - 0.01 in Snow Light Snow
4:28 AM 30.2 °F 18.1 °F 30.2 °F 100% 29.63 in 1.5 mi North 18.4 mph - 0.01 in Snow Light Snow
4:46 AM 30.2 °F 18.5 °F 30.2 °F 100% 29.65 in 2.0 mi North 17.3 mph - 0.01 in Snow Light Snow
4:53 AM 30.9 °F 19.8 °F 30.0 °F 96% 29.67 in 1.8 mi North 16.1 mph 24.2 mph 0.01 in Snow Light Snow
5:07 AM 30.2 °F 18.9 °F 30.2 °F 100% 29.66 in 2.0 mi North 16.1 mph - 0.00 in Snow Light Snow
5:19 AM 30.2 °F 19.3 °F 30.2 °F 100% 29.67 in 4.0 mi North 15.0 mph - 0.00 in Snow Light Snow
5:53 AM 32.0 °F 20.8 °F 30.0 °F 92% 29.73 in 9.0 mi North 17.3 mph - 0.00 in   Overcast
6:53 AM 32.0 °F 20.5 °F 30.0 °F 92% 29.78 in 9.0 mi North 18.4 mph - N/A   Overcast
7:53 AM 32.0 °F 22.1 °F 30.0 °F 92% 29.85 in 7.0 mi North 13.8 mph - N/A   Overcast
8:53 AM 32.0 °F 21.6 °F 30.0 °F 92% 29.92 in 8.0 mi North 15.0 mph - N/A   Overcast
9:05 AM 32.0 °F 22.1 °F 28.4 °F 87% 29.90 in 8.0 mi North 13.8 mph - N/A   Overcast
9:53 AM 34.0 °F 26.0 °F 30.0 °F 85% 29.96 in 8.0 mi North 10.4 mph - N/A   Mostly Cloudy
10:53 AM 34.0 °F 25.5 °F 30.0 °F 85% 30.01 in 8.0 mi NNW 11.5 mph - N/A   Overcast
11:13 AM 35.6 °F 27.1 °F 30.2 °F 81% 29.99 in 9.0 mi NNW 12.7 mph - N/A   Overcast
11:53 AM 35.1 °F 25.5 °F 30.0 °F 82% 30.04 in 10.0 mi NNW 15.0 mph - N/A   Overcast
12:53 PM 35.1 °F 27.4 °F 30.0 °F 82% 30.06 in 10.0 mi NNW 10.4 mph - N/A   Overcast
1:53 PM 36.0 °F 29.6 °F 30.0 °F 79% 30.07 in 10.0 mi NNW 8.1 mph - N/A   Overcast
2:53 PM 36.0 °F 27.5 °F 30.0 °F 79% 30.09 in 10.0 mi NW 12.7 mph - N/A   Overcast
3:53 PM 36.0 °F 27.5 °F 30.0 °F 79% 30.11 in 9.0 mi NW 12.7 mph - N/A   Overcast
5:53 PM 35.1 °F 27.9 °F 28.9 °F 78% 30.14 in 9.0 mi NW 9.2 mph - N/A   Overcast
6:53 PM 35.1 °F 26.9 °F 30.0 °F 82% 30.17 in 10.0 mi NW 11.5 mph - N/A   Overcast
7:53 PM 34.0 °F 26.0 °F 28.9 °F 82% 30.19 in 9.0 mi NW 10.4 mph - N/A   Overcast
8:53 PM 33.1 °F 23.4 °F 28.0 °F 82% 30.21 in 7.0 mi WNW 13.8 mph - N/A   Overcast
9:53 PM 32.0 °F 22.5 °F 27.0 °F 82% 30.22 in 7.0 mi NW 12.7 mph - N/A   Overcast
10:53 PM 32.0 °F 24.2 °F 27.0 °F 82% 30.22 in 7.0 mi WNW 9.2 mph - N/A   Overcast
11:53 PM 32.0 °F 24.8 °F 27.0 °F 82% 30.22 in 9.0 mi NW 8.1 mph - N/A   Overcast